カタログに戻る

COSMOS 1261 DEB

LostHEO
NORAD 33520·DEBRIS·🇷🇺 Russia

打ち上げ Mar 31, 1981 から Plesetsk Cosmodrome

Loading…

次のパス (今後24時間)

TLE

古いSource: Space-Track

元期: Mar 12, 2017, 10:57 UTC

1 33520U 81031M   17071.45636941 -.00000620  00000-0  00000+0 0  9998
2 33520  69.2481 278.2744 5383156  80.3824  21.0722  2.00811053 83280

AllMySatでCOSMOS 1261 DEBをリアルタイム追跡

Download on the App Store